Year,Month,Day,Hour,Minute,Value (Times are PST for temperature in C)
2018,12,16,09,19,8.60
2018,12,16,09,20,8.70
2018,12,16,09,21,8.70
2018,12,16,09,22,8.70
2018,12,16,09,23,8.70
2018,12,16,09,24,8.70
2018,12,16,09,25,8.70
2018,12,16,09,26,8.70
2018,12,16,09,27,8.70
2018,12,16,09,28,8.70
2018,12,16,09,29,8.70
2018,12,16,09,30,8.70
2018,12,16,09,31,8.70
2018,12,16,09,32,8.70
2018,12,16,09,33,8.70
2018,12,16,09,34,8.70
2018,12,16,09,35,8.70
2018,12,16,09,36,8.80
2018,12,16,09,37,8.80
2018,12,16,09,38,8.80
2018,12,16,09,39,8.80
2018,12,16,09,40,8.80
2018,12,16,09,41,8.80
2018,12,16,09,42,8.80
2018,12,16,09,43,8.70
2018,12,16,09,44,8.70
2018,12,16,09,45,8.70
2018,12,16,09,46,8.70
2018,12,16,09,47,8.70
2018,12,16,09,48,8.70
2018,12,16,09,49,8.70
2018,12,16,09,50,8.70
2018,12,16,09,51,8.80
2018,12,16,09,52,8.80
2018,12,16,09,53,8.80
2018,12,16,09,54,8.80
2018,12,16,09,55,8.80
2018,12,16,09,56,8.80
2018,12,16,09,57,8.80
2018,12,16,09,58,8.80
2018,12,16,09,59,8.80
2018,12,16,10,00,8.80
2018,12,16,10,01,8.80
2018,12,16,10,02,8.80
2018,12,16,10,03,8.80
2018,12,16,10,04,8.80
2018,12,16,10,05,8.80
2018,12,16,10,06,8.80
2018,12,16,10,07,8.80
2018,12,16,10,08,8.80
2018,12,16,10,09,8.80
2018,12,16,10,10,8.80
2018,12,16,10,11,8.80
2018,12,16,10,12,8.80
2018,12,16,10,13,8.90
2018,12,16,10,14,8.90
2018,12,16,10,15,8.90
2018,12,16,10,16,8.90
2018,12,16,10,17,8.90
2018,12,16,10,18,8.90
2018,12,16,10,19,8.90
2018,12,16,10,20,8.90
2018,12,16,10,21,8.90
2018,12,16,10,22,8.90
2018,12,16,10,23,8.90
2018,12,16,10,24,8.90
2018,12,16,10,25,8.90
2018,12,16,10,26,8.90
2018,12,16,10,27,8.90
2018,12,16,10,28,8.90
2018,12,16,10,29,8.90
2018,12,16,10,30,8.90
2018,12,16,10,31,8.90
2018,12,16,10,32,8.90
2018,12,16,10,33,8.90
2018,12,16,10,34,8.90
2018,12,16,10,35,8.90
2018,12,16,10,36,8.90
2018,12,16,10,37,8.90
2018,12,16,10,38,8.90
2018,12,16,10,39,8.90
2018,12,16,10,40,8.90
2018,12,16,10,41,8.90
2018,12,16,10,42,8.90
2018,12,16,10,43,8.90
2018,12,16,10,44,8.90
2018,12,16,10,45,9.00
2018,12,16,10,46,9.00
2018,12,16,10,47,9.00
2018,12,16,10,48,9.00
2018,12,16,10,49,9.10
2018,12,16,10,50,9.10
2018,12,16,10,51,9.10
2018,12,16,10,52,9.10
2018,12,16,10,53,9.10
2018,12,16,10,54,9.10
2018,12,16,10,55,9.10
2018,12,16,10,56,9.10
2018,12,16,10,57,9.10
2018,12,16,10,58,9.10
2018,12,16,10,59,9.10
2018,12,16,11,00,9.10
2018,12,16,11,01,9.10
2018,12,16,11,02,9.10
2018,12,16,11,03,9.10
2018,12,16,11,04,9.10
2018,12,16,11,05,9.10
2018,12,16,11,06,9.10
2018,12,16,11,07,9.10
2018,12,16,11,08,9.10
2018,12,16,11,09,9.10
2018,12,16,11,10,9.10
2018,12,16,11,11,9.20
2018,12,16,11,12,9.20
2018,12,16,11,13,9.20
2018,12,16,11,14,9.20
2018,12,16,11,15,9.20
2018,12,16,11,16,9.20
2018,12,16,11,17,9.20
2018,12,16,11,18,9.20
2018,12,16,11,19,9.20
2018,12,16,11,20,9.30
2018,12,16,11,21,9.30
2018,12,16,11,22,9.30
2018,12,16,11,23,9.30
2018,12,16,11,24,9.30
2018,12,16,11,25,9.20
2018,12,16,11,26,9.20
2018,12,16,11,27,9.20
2018,12,16,11,28,9.20
2018,12,16,11,29,9.20
2018,12,16,11,30,9.20
2018,12,16,11,31,9.20
2018,12,16,11,32,9.20
2018,12,16,11,33,9.20
2018,12,16,11,34,9.20
2018,12,16,11,35,9.20
2018,12,16,11,36,9.20
2018,12,16,11,37,9.20
2018,12,16,11,38,9.20
2018,12,16,11,39,9.20
2018,12,16,11,40,9.20
2018,12,16,11,41,9.20
2018,12,16,11,42,9.20
2018,12,16,11,43,9.20
2018,12,16,11,44,9.20
2018,12,16,11,45,9.20
2018,12,16,11,46,9.20
2018,12,16,11,47,9.20
2018,12,16,11,48,9.20
2018,12,16,11,49,9.20
2018,12,16,11,50,9.20
2018,12,16,11,51,9.20
2018,12,16,11,52,9.20
2018,12,16,11,53,9.20
2018,12,16,11,54,9.20
